Location: Maiden
(35.5760°N, 81.2120°W)
Time: 02:04:01
(UTC-04:00)

A-11 Canister half - Pass Details

Date: 05 August 2020
Orbit: 1527 x 1682 km, 47.3° (Epoch: 25 September)

Event Time Altitude Azimuth Distance (km) Brightness Sun altitude
Rises 22:52:17 0° 295° (WNW) 4,858 12.7 -25.7°
Reaches altitude 10° 22:56:15 10° 282° (WNW) 3,843 11.8 -26.3°
Maximum altitude 23:03:22 23° 235° (SW) 2,871 10.4 -27.2°
Enters shadow 23:07:33 17° 202° (SSW) 3,204 10.4 -27.8°
Drops below altitude 10° 23:10:20 10° 187° (S) 3,741 - -28.1°
Sets 23:14:11 0° 173° (S) 4,700 - -28.6°
